Weather History for Ellensburg, WA

Change the Weather History Date:

Friday, October 19, 2012

  Actual Average (KYKM) Record (KYKM)
Temperature  
Mean Temperature 54 °F 48 °F  
Max Temperature 64 °F 62 °F 74 °F (1992)
Min Temperature 44 °F 33 °F 17 °F (1949)
Degree Days  
Heating Degree Days 11 17  
Month to date heating degree days 259  
Since 1 July heating degree days 467  
Cooling Degree Days 0 0  
Month to date cooling degree days 0  
Year to date cooling degree days 472  
Growing Degree Days 4 (Base 50)    
Moisture  
Dew Point 42 °F    
Average Humidity 68    
Maximum Humidity 83    
Minimum Humidity 56    
Precipitation  
Precipitation 0.01 in 0.02 in 0.63 in (1947)
Month to date precipitation 0.27  
Year to date precipitation 5.40  
Snow  
Snow 0.00 in 0.00 in 0.00 in (2002)
Month to date snowfall 0.0  
Year to date snowfall 8.6  
Since 1 July snowfall 0.0  
Snow Depth -    
Sea Level Pressure  
Sea Level Pressure 29.74 in    
Wind  
Wind Speed 5 mph (NNW)    
Max Wind Speed 23 mph    
Max Gust Speed 30 mph    
Visibility 10 miles    
Events Rain    
T = Trace of Precipitation, MM = Missing Value Source: NWS Daily Summary

Daily Weather History Graph

Daily Weather History Graph

Search for Another Location

Airport:

Trip Planner

Search our weather history database for the weather conditions in past years. The results will help you decide how hot, cold, wet, or windy it might be!

Date:

Astronomy

Oct. 19, 2012 Rise Set
Actual Time 7:26 AM PDT 6:06 PM PDT
Civil Twilight 6:55 AM PDT 6:37 PM PDT
Nautical Twilight 6:20 AM PDT 7:12 PM PDT
Astronomical Twilight 5:45 AM PDT 7:47 PM PDT
Moon 12:28 PM PDT (10/19) 9:37 PM PDT (10/19)
Length of Visible Light 11h 41m
Length of Day
10h 39m
Waxing Crescent, 24% of the Moon is Illuminated
Oct 19
Waxing Crescent
Oct 21
First Quarter
Oct 29
Full
Nov 6
Last Quarter
Nov 13
New

Hourly Weather History & Observations

Time (PDT) Temp. Windchill Dew Point Humidity Pressure Visibility Wind Dir Wind Speed Gust Speed Precip Events Conditions
12:53 AM 45.0 °F - 37.9 °F 76% 29.83 in 10.0 mi Calm Calm - N/A   Mostly Cloudy
1:53 AM 44.1 °F - 37.0 °F 76% 29.84 in 10.0 mi Calm Calm - N/A   Scattered Clouds
2:53 AM 48.0 °F - 39.9 °F 74% 29.83 in 10.0 mi Calm Calm - 0.00 in   Overcast
3:53 AM 46.9 °F - 39.9 °F 77% 29.83 in 10.0 mi ENE 5.8 mph - N/A   Overcast
4:53 AM 48.9 °F - 42.1 °F 77% 29.81 in 10.0 mi Calm Calm - 0.01 in   Overcast
5:53 AM 46.0 °F - 41.0 °F 83% 29.81 in 9.0 mi Calm Calm - N/A   Mostly Cloudy
6:53 AM 46.9 °F - 41.0 °F 80% 29.80 in 10.0 mi Calm Calm - 0.00 in Rain Light Rain
7:53 AM 44.1 °F 40.8 °F 39.0 °F 82% 29.79 in 5.0 mi ESE 5.8 mph - 0.00 in   Haze
8:53 AM 51.1 °F - 44.1 °F 77% 29.77 in 10.0 mi East 3.5 mph - N/A   Clear
9:53 AM 54.0 °F - 44.1 °F 69% 29.77 in 10.0 mi SE 3.5 mph - N/A   Clear
10:53 AM 57.0 °F - 45.0 °F 64% 29.76 in 10.0 mi Calm Calm - N/A   Clear
11:53 AM 64.0 °F - 48.0 °F 56% 29.74 in 10.0 mi WSW 5.8 mph - N/A   Mostly Cloudy
12:53 PM 63.0 °F - 48.9 °F 60% 29.73 in 10.0 mi Variable 3.5 mph - N/A   Overcast
1:53 PM 62.1 °F - 48.0 °F 60% 29.70 in 10.0 mi WNW 12.7 mph - 0.00 in Rain Light Rain
2:53 PM 61.0 °F - 46.9 °F 60% 29.69 in 10.0 mi NW 23.0 mph 28.8 mph 0.00 in   Overcast
3:53 PM 61.0 °F - 46.0 °F 58% 29.67 in 10.0 mi NW 23.0 mph 29.9 mph 0.00 in   Mostly Cloudy
4:53 PM 57.9 °F - 44.1 °F 60% 29.66 in 10.0 mi NW 20.7 mph - N/A   Overcast
5:53 PM 57.0 °F - 43.0 °F 59% 29.66 in 10.0 mi NW 16.1 mph - 0.00 in   Scattered Clouds
6:53 PM 55.9 °F - 42.1 °F 60% 29.66 in 10.0 mi NW 17.3 mph 28.8 mph N/A   Mostly Cloudy
7:53 PM 54.0 °F - 41.0 °F 62% 29.67 in 10.0 mi NW 18.4 mph 26.5 mph N/A   Overcast
8:53 PM 51.1 °F - 39.0 °F 63% 29.69 in 10.0 mi NW 15.0 mph 24.2 mph N/A   Mostly Cloudy
9:53 PM 48.9 °F - 37.9 °F 66% 29.68 in 10.0 mi North 8.1 mph - N/A   Scattered Clouds
10:53 PM 50.0 °F - 37.9 °F 63% 29.69 in 10.0 mi NNW 8.1 mph - N/A   Overcast
11:53 PM 50.0 °F - 37.0 °F 61% 29.70 in 10.0 mi NNW 13.8 mph - N/A   Overcast